Time,TemperatureF,DewpointF,PressureIn,WindDirection,WindDirectionDegrees,WindSpeedMPH,WindSpeedGustMPH,Humidity,HourlyPrecipIn,Conditions,Clouds,dailyrainin,SoftwareType,DateUTC
2013-01-05 00:03:00,39.3,38.3,30.35,NW,325,0.0,0.0,96,0.00,,,0.00,Wunderground v.1.13,2013-01-05 06:03:00,
2013-01-05 00:08:00,39.3,38.3,30.35,NW,325,0.0,0.0,96,0.00,,,0.00,Wunderground v.1.13,2013-01-05 06:08:00,
2013-01-05 00:14:00,39.3,38.3,30.35,NW,325,0.0,0.0,96,0.00,,,0.00,Wunderground v.1.13,2013-01-05 06:14:00,
2013-01-05 00:19:00,39.3,38.3,30.35,NW,325,0.0,0.0,96,0.00,,,0.00,Wunderground v.1.13,2013-01-05 06:19:00,
2013-01-05 00:25:00,39.2,38.2,30.35,NW,325,0.0,0.0,96,0.00,,,0.00,Wunderground v.1.13,2013-01-05 06:25:00,
2013-01-05 00:30:00,39.2,38.2,30.35,NW,325,0.0,0.0,96,0.00,,,0.00,Wunderground v.1.13,2013-01-05 06:30:00,
2013-01-05 00:35:00,39.1,38.1,30.35,NW,325,0.0,0.0,96,0.00,,,0.00,Wunderground v.1.13,2013-01-05 06:35:00,
2013-01-05 00:41:00,39.0,38.0,30.35,NW,325,0.0,0.0,96,0.00,,,0.00,Wunderground v.1.13,2013-01-05 06:41:00,
2013-01-05 00:46:00,38.9,37.9,30.35,NW,325,0.0,0.0,96,0.00,,,0.00,Wunderground v.1.13,2013-01-05 06:46:00,
2013-01-05 00:51:00,38.8,37.8,30.35,NW,325,0.0,0.0,96,0.00,,,0.00,Wunderground v.1.13,2013-01-05 06:51:00,
2013-01-05 00:57:00,38.7,37.7,30.34,NW,325,0.0,0.0,96,0.00,,,0.00,Wunderground v.1.13,2013-01-05 06:57:00,
2013-01-05 01:02:00,38.7,37.7,30.34,NW,325,0.0,0.0,96,0.00,,,0.00,Wunderground v.1.13,2013-01-05 07:02:00,
2013-01-05 01:08:00,38.6,37.6,30.34,NW,325,0.0,0.0,96,0.00,,,0.00,Wunderground v.1.13,2013-01-05 07:08:00,
2013-01-05 01:14:00,38.6,37.6,30.35,NW,325,0.0,0.0,96,0.00,,,0.00,Wunderground v.1.13,2013-01-05 07:14:00,
2013-01-05 01:19:00,38.5,37.5,30.34,NW,325,0.0,0.0,96,0.00,,,0.00,Wunderground v.1.13,2013-01-05 07:19:00,
2013-01-05 01:24:00,38.4,37.4,30.35,NW,325,0.0,0.0,96,0.00,,,0.00,Wunderground v.1.13,2013-01-05 07:24:00,
2013-01-05 01:30:00,38.3,37.3,30.35,NW,325,0.0,0.0,96,0.00,,,0.00,Wunderground v.1.13,2013-01-05 07:30:00,
2013-01-05 01:35:00,38.2,37.2,30.35,NW,325,0.0,0.0,96,0.00,,,0.00,Wunderground v.1.13,2013-01-05 07:35:00,
2013-01-05 01:41:00,38.1,37.1,30.35,NW,325,0.0,0.0,96,0.00,,,0.00,Wunderground v.1.13,2013-01-05 07:41:00,
2013-01-05 01:47:00,38.0,37.0,30.35,NW,325,0.0,0.0,96,0.00,,,0.00,Wunderground v.1.13,2013-01-05 07:47:00,
2013-01-05 01:52:00,37.9,36.9,30.35,NW,325,0.0,0.0,96,0.00,,,0.00,Wunderground v.1.13,2013-01-05 07:52:00,
2013-01-05 01:57:00,37.8,36.8,30.35,NW,325,0.0,0.0,96,0.00,,,0.00,Wunderground v.1.13,2013-01-05 07:57:00,
2013-01-05 02:02:00,37.7,36.7,30.35,NW,325,0.0,0.0,96,0.00,,,0.00,Wunderground v.1.13,2013-01-05 08:02:00,
2013-01-05 02:08:00,37.5,36.5,30.34,NW,325,0.0,0.0,96,0.00,,,0.00,Wunderground v.1.13,2013-01-05 08:08:00,
2013-01-05 02:13:00,37.4,36.4,30.34,NW,325,0.0,0.0,96,0.00,,,0.00,Wunderground v.1.13,2013-01-05 08:13:00,
2013-01-05 02:18:00,37.3,36.3,30.34,NW,325,0.0,0.0,96,0.00,,,0.00,Wunderground v.1.13,2013-01-05 08:18:00,
2013-01-05 02:24:00,37.3,36.3,30.34,NW,325,0.0,0.0,96,0.00,,,0.00,Wunderground v.1.13,2013-01-05 08:24:00,
2013-01-05 02:29:00,37.2,36.2,30.34,NW,325,0.0,0.0,96,0.00,,,0.00,Wunderground v.1.13,2013-01-05 08:29:00,
2013-01-05 02:34:00,37.2,36.2,30.34,NW,325,0.0,0.0,96,0.00,,,0.00,Wunderground v.1.13,2013-01-05 08:34:00,
2013-01-05 02:40:00,37.1,36.1,30.35,NW,325,0.0,0.0,96,0.00,,,0.00,Wunderground v.1.13,2013-01-05 08:40:00,
2013-01-05 02:46:00,37.1,36.1,30.34,NW,325,0.0,0.0,96,0.00,,,0.00,Wunderground v.1.13,2013-01-05 08:46:00,
2013-01-05 02:52:00,37.1,36.1,30.34,NW,325,0.0,0.0,96,0.00,,,0.00,Wunderground v.1.13,2013-01-05 08:52:00,
2013-01-05 02:58:00,37.0,36.0,30.34,NW,325,0.0,0.0,96,0.00,,,0.00,Wunderground v.1.13,2013-01-05 08:58:00,
2013-01-05 03:04:00,37.0,36.0,30.34,NW,325,0.0,0.0,96,0.00,,,0.00,Wunderground v.1.13,2013-01-05 09:04:00,
2013-01-05 03:09:00,36.9,35.9,30.35,NW,325,0.0,0.0,96,0.00,,,0.00,Wunderground v.1.13,2013-01-05 09:09:00,
2013-01-05 03:14:00,36.9,35.9,30.35,NW,325,0.0,0.0,96,0.00,,,0.00,Wunderground v.1.13,2013-01-05 09:14:00,
2013-01-05 03:20:00,36.8,35.8,30.35,NW,325,0.0,0.0,96,0.00,,,0.00,Wunderground v.1.13,2013-01-05 09:20:00,
2013-01-05 03:25:00,36.8,35.8,30.35,NW,325,0.0,0.0,96,0.00,,,0.00,Wunderground v.1.13,2013-01-05 09:25:00,
2013-01-05 03:30:00,36.7,35.7,30.35,NW,325,0.0,0.0,96,0.00,,,0.00,Wunderground v.1.13,2013-01-05 09:30:00,
2013-01-05 03:36:00,36.7,35.7,30.34,NW,325,0.0,0.0,96,0.00,,,0.00,Wunderground v.1.13,2013-01-05 09:36:00,
2013-01-05 03:41:00,36.7,35.7,30.34,NW,325,0.0,0.0,96,0.00,,,0.00,Wunderground v.1.13,2013-01-05 09:41:00,
2013-01-05 03:47:00,36.6,35.6,30.35,NW,325,0.0,0.0,96,0.00,,,0.00,Wunderground v.1.13,2013-01-05 09:47:00,
2013-01-05 03:52:00,36.6,35.6,30.34,NW,325,0.0,2.0,96,0.00,,,0.00,Wunderground v.1.13,2013-01-05 09:52:00,
2013-01-05 03:57:00,36.8,35.8,30.34,NW,325,0.0,2.0,96,0.00,,,0.00,Wunderground v.1.13,2013-01-05 09:57:00,
2013-01-05 04:03:00,36.8,35.8,30.34,NW,325,0.0,1.0,96,0.00,,,0.00,Wunderground v.1.13,2013-01-05 10:03:00,
2013-01-05 04:09:00,36.8,35.8,30.34,NW,326,0.0,0.0,96,0.00,,,0.00,Wunderground v.1.13,2013-01-05 10:09:00,
2013-01-05 04:15:00,36.8,35.8,30.34,NNW,327,0.0,0.0,96,0.00,,,0.00,Wunderground v.1.13,2013-01-05 10:15:00,
2013-01-05 04:21:00,36.8,35.8,30.34,NNW,327,0.0,0.0,96,0.00,,,0.00,Wunderground v.1.13,2013-01-05 10:21:00,
2013-01-05 04:26:00,36.9,35.9,30.34,NNW,327,0.0,0.0,96,0.00,,,0.00,Wunderground v.1.13,2013-01-05 10:26:00,
2013-01-05 04:32:00,37.0,35.7,30.34,NNW,327,0.0,0.0,95,0.00,,,0.00,Wunderground v.1.13,2013-01-05 10:32:00,
2013-01-05 04:37:00,37.0,35.7,30.34,NNW,327,0.0,0.0,95,0.00,,,0.00,Wunderground v.1.13,2013-01-05 10:37:00,
2013-01-05 04:44:00,37.0,35.7,30.34,NNW,329,0.0,2.0,95,0.00,,,0.00,Wunderground v.1.13,2013-01-05 10:44:00,
2013-01-05 04:50:00,37.1,36.1,30.34,NNW,329,0.0,0.0,96,0.00,,,0.00,Wunderground v.1.13,2013-01-05 10:50:00,
2013-01-05 04:56:00,37.1,36.1,30.34,NNW,329,0.0,0.0,96,0.00,,,0.00,Wunderground v.1.13,2013-01-05 10:56:00,
2013-01-05 05:02:00,37.2,36.2,30.35,NNW,329,0.0,0.0,96,0.00,,,0.00,Wunderground v.1.13,2013-01-05 11:02:00,
2013-01-05 05:07:00,37.2,36.2,30.35,NNW,329,0.0,0.0,96,0.00,,,0.00,Wunderground v.1.13,2013-01-05 11:07:00,
2013-01-05 05:14:00,37.2,36.2,30.35,NNW,329,0.0,0.0,96,0.00,,,0.00,Wunderground v.1.13,2013-01-05 11:14:00,
2013-01-05 05:19:00,37.2,36.2,30.34,NNW,329,0.0,0.0,96,0.00,,,0.00,Wunderground v.1.13,2013-01-05 11:19:00,
2013-01-05 05:25:00,37.2,36.2,30.35,NNW,329,0.0,0.0,96,0.00,,,0.00,Wunderground v.1.13,2013-01-05 11:25:00,
2013-01-05 05:30:00,37.3,36.3,30.35,NNW,329,0.0,0.0,96,0.00,,,0.00,Wunderground v.1.13,2013-01-05 11:30:00,
2013-01-05 05:35:00,37.3,36.0,30.35,NNW,329,0.0,0.0,95,0.00,,,0.00,Wunderground v.1.13,2013-01-05 11:35:00,
2013-01-05 05:41:00,37.3,36.0,30.34,NNW,329,0.0,2.0,95,0.00,,,0.00,Wunderground v.1.13,2013-01-05 11:41:00,
2013-01-05 05:46:00,37.4,36.1,30.35,NNW,329,0.0,0.0,95,0.00,,,0.00,Wunderground v.1.13,2013-01-05 11:46:00,
2013-01-05 05:51:00,37.5,35.9,30.35,NNW,329,0.0,0.0,94,0.00,,,0.00,Wunderground v.1.13,2013-01-05 11:51:00,
2013-01-05 05:56:00,37.7,36.1,30.35,NNW,329,0.0,0.0,94,0.00,,,0.00,Wunderground v.1.13,2013-01-05 11:56:00,
2013-01-05 06:02:00,37.7,36.1,30.35,NNW,329,0.0,0.0,94,0.00,,,0.00,Wunderground v.1.13,2013-01-05 12:02:00,
2013-01-05 06:07:00,37.7,35.9,30.35,NNW,329,0.0,0.0,93,0.00,,,0.00,Wunderground v.1.13,2013-01-05 12:07:00,
2013-01-05 06:12:00,37.8,35.7,30.35,NNW,329,0.0,0.0,92,0.00,,,0.00,Wunderground v.1.13,2013-01-05 12:12:00,
2013-01-05 06:17:00,37.9,36.1,30.35,NNW,334,0.0,1.0,93,0.00,,,0.00,Wunderground v.1.13,2013-01-05 12:17:00,
2013-01-05 06:23:00,38.0,35.3,30.35,NNW,334,0.0,0.0,90,0.00,,,0.00,Wunderground v.1.13,2013-01-05 12:23:00,
2013-01-05 06:28:00,38.5,34.4,30.36,NNW,333,0.0,1.0,85,0.00,,,0.00,Wunderground v.1.13,2013-01-05 12:28:00,
2013-01-05 06:33:00,39.3,35.5,30.36,NNW,333,0.0,0.0,86,0.00,,,0.00,Wunderground v.1.13,2013-01-05 12:33:00,
2013-01-05 06:39:00,39.5,35.4,30.36,NNW,334,0.0,1.0,85,0.00,,,0.00,Wunderground v.1.13,2013-01-05 12:39:00,
2013-01-05 06:44:00,39.6,35.5,30.36,NNE,22,0.0,1.0,85,0.00,,,0.00,Wunderground v.1.13,2013-01-05 12:44:00,
2013-01-05 06:50:00,39.7,35.6,30.36,NNE,24,0.0,0.0,85,0.00,,,0.00,Wunderground v.1.13,2013-01-05 12:50:00,
2013-01-05 06:55:00,39.8,33.8,30.36,NNE,24,0.0,1.0,79,0.00,,,0.00,Wunderground v.1.13,2013-01-05 12:55:00,
2013-01-05 07:00:00,40.1,34.4,30.36,NNE,22,0.0,0.0,80,0.00,,,0.00,Wunderground v.1.13,2013-01-05 13:00:00,
2013-01-05 07:05:00,40.3,34.6,30.36,NNE,23,0.0,0.0,80,0.00,,,0.00,Wunderground v.1.13,2013-01-05 13:05:00,
2013-01-05 07:11:00,40.4,34.1,30.37,NNE,26,0.0,0.0,78,0.00,,,0.00,Wunderground v.1.13,2013-01-05 13:11:00,
2013-01-05 07:16:00,40.6,34.9,30.36,NNE,26,0.0,0.0,80,0.00,,,0.00,Wunderground v.1.13,2013-01-05 13:16:00,
2013-01-05 07:21:00,40.7,34.4,30.36,NNE,27,0.0,0.0,78,0.00,,,0.00,Wunderground v.1.13,2013-01-05 13:21:00,
2013-01-05 07:26:00,41.0,34.0,30.36,NE,45,1.0,1.0,76,0.00,,,0.00,Wunderground v.1.13,2013-01-05 13:26:00,
2013-01-05 07:32:00,41.4,34.1,30.36,NE,44,2.0,5.0,75,0.00,,,0.00,Wunderground v.1.13,2013-01-05 13:32:00,
2013-01-05 07:37:00,41.8,33.8,30.37,NE,37,2.0,3.0,73,0.00,,,0.00,Wunderground v.1.13,2013-01-05 13:37:00,
2013-01-05 07:42:00,42.4,34.4,30.37,NE,44,2.0,4.0,73,0.00,,,0.00,Wunderground v.1.13,2013-01-05 13:42:00,
2013-01-05 07:47:00,43.2,35.1,30.37,ENE,71,1.0,4.0,73,0.00,,,0.00,Wunderground v.1.13,2013-01-05 13:47:00,
2013-01-05 07:53:00,43.7,34.6,30.37,NE,53,2.0,2.0,70,0.00,,,0.00,Wunderground v.1.13,2013-01-05 13:53:00,
2013-01-05 07:58:00,44.0,34.1,30.38,NE,53,2.0,2.0,68,0.00,,,0.00,Wunderground v.1.13,2013-01-05 13:58:00,
2013-01-05 08:03:00,44.4,35.6,30.38,East,90,1.0,5.0,71,0.00,,,0.00,Wunderground v.1.13,2013-01-05 14:03:00,
2013-01-05 08:08:00,44.7,35.1,30.38,NE,55,1.0,5.0,69,0.00,,,0.00,Wunderground v.1.13,2013-01-05 14:08:00,
2013-01-05 08:14:00,45.0,35.1,30.38,ENE,61,1.0,1.0,68,0.00,,,0.00,Wunderground v.1.13,2013-01-05 14:14:00,
2013-01-05 08:19:00,45.3,34.6,30.39,NE,51,2.0,7.0,66,0.00,,,0.00,Wunderground v.1.13,2013-01-05 14:19:00,
2013-01-05 08:25:00,45.2,34.5,30.39,ENE,63,3.0,3.0,66,0.00,,,0.00,Wunderground v.1.13,2013-01-05 14:25:00,
2013-01-05 08:31:00,45.1,34.4,30.39,ENE,59,2.0,2.0,66,0.00,,,0.00,Wunderground v.1.13,2013-01-05 14:31:00,
2013-01-05 08:36:00,45.2,34.5,30.39,ENE,59,1.0,1.0,66,0.00,,,0.00,Wunderground v.1.13,2013-01-05 14:36:00,
2013-01-05 08:42:00,45.4,35.8,30.39,ENE,61,1.0,1.0,69,0.00,,,0.00,Wunderground v.1.13,2013-01-05 14:42:00,
2013-01-05 08:47:00,45.6,35.3,30.38,ENE,61,1.0,1.0,67,0.00,,,0.00,Wunderground v.1.13,2013-01-05 14:47:00,
2013-01-05 08:52:00,46.1,35.7,30.38,ENE,61,1.0,1.0,67,0.00,,,0.00,Wunderground v.1.13,2013-01-05 14:52:00,
2013-01-05 08:57:00,46.4,36.0,30.38,ENE,61,2.0,3.0,67,0.00,,,0.00,Wunderground v.1.13,2013-01-05 14:57:00,
2013-01-05 09:03:00,46.5,35.4,30.38,ENE,61,2.0,2.0,65,0.00,,,0.00,Wunderground v.1.13,2013-01-05 15:03:00,
2013-01-05 09:08:00,46.8,36.0,30.38,ENE,67,2.0,7.0,66,0.00,,,0.00,Wunderground v.1.13,2013-01-05 15:08:00,
2013-01-05 09:13:00,47.2,35.6,30.38,ENE,78,3.0,5.0,64,0.00,,,0.00,Wunderground v.1.13,2013-01-05 15:13:00,
2013-01-05 09:19:00,47.6,36.8,30.38,East,88,2.0,3.0,66,0.00,,,0.00,Wunderground v.1.13,2013-01-05 15:19:00,
2013-01-05 09:24:00,48.0,36.0,30.38,East,88,2.0,4.0,63,0.00,,,0.00,Wunderground v.1.13,2013-01-05 15:24:00,
2013-01-05 09:29:00,48.2,36.6,30.37,North,10,3.0,6.0,64,0.00,,,0.00,Wunderground v.1.13,2013-01-05 15:29:00,
2013-01-05 09:34:00,48.4,36.4,30.37,East,87,2.0,5.0,63,0.00,,,0.00,Wunderground v.1.13,2013-01-05 15:34:00,
2013-01-05 09:40:00,48.7,36.3,30.37,ENE,59,2.0,6.0,62,0.00,,,0.00,Wunderground v.1.13,2013-01-05 15:40:00,
2013-01-05 09:45:00,49.2,36.7,30.37,ENE,64,1.0,2.0,62,0.00,,,0.00,Wunderground v.1.13,2013-01-05 15:45:00,
2013-01-05 09:50:00,49.4,36.1,30.37,East,90,2.0,3.0,60,0.00,,,0.00,Wunderground v.1.13,2013-01-05 15:50:00,
2013-01-05 09:56:00,49.7,35.5,30.37,ENE,62,3.0,3.0,58,0.00,,,0.00,Wunderground v.1.13,2013-01-05 15:56:00,
2013-01-05 10:01:00,50.1,35.9,30.37,ENE,69,2.0,3.0,58,0.00,,,0.00,Wunderground v.1.13,2013-01-05 16:01:00,
2013-01-05 10:07:00,50.5,36.3,30.37,ENE,64,2.0,3.0,58,0.00,,,0.00,Wunderground v.1.13,2013-01-05 16:07:00,
2013-01-05 10:12:00,50.8,36.1,30.37,ENE,64,2.0,2.0,57,0.00,,,0.00,Wunderground v.1.13,2013-01-05 16:12:00,
2013-01-05 10:18:00,51.2,37.4,30.37,ENE,61,1.0,2.0,59,0.00,,,0.00,Wunderground v.1.13,2013-01-05 16:18:00,
2013-01-05 10:23:00,51.3,35.7,30.37,ENE,61,1.0,2.0,55,0.00,,,0.00,Wunderground v.1.13,2013-01-05 16:23:00,
2013-01-05 10:28:00,51.5,35.9,30.37,ENE,65,1.0,2.0,55,0.00,,,0.00,Wunderground v.1.13,2013-01-05 16:28:00,
2013-01-05 10:33:00,51.5,35.9,30.37,ENE,78,1.0,2.0,55,0.00,,,0.00,Wunderground v.1.13,2013-01-05 16:33:00,
2013-01-05 10:39:00,51.7,35.6,30.37,ENE,74,2.0,5.0,54,0.00,,,0.00,Wunderground v.1.13,2013-01-05 16:39:00,
2013-01-05 10:44:00,51.9,36.7,30.37,ENE,74,1.0,2.0,56,0.00,,,0.00,Wunderground v.1.13,2013-01-05 16:44:00,
2013-01-05 10:49:00,52.1,36.4,30.37,ENE,74,1.0,2.0,55,0.00,,,0.00,Wunderground v.1.13,2013-01-05 16:49:00,
2013-01-05 10:54:00,52.4,37.6,30.36,ENE,74,1.0,1.0,57,0.00,,,0.00,Wunderground v.1.13,2013-01-05 16:54:00,
2013-01-05 11:00:00,52.7,36.5,30.36,ENE,74,0.0,0.0,54,0.00,,,0.00,Wunderground v.1.13,2013-01-05 17:00:00,
2013-01-05 11:05:00,53.1,37.8,30.36,ENE,74,1.0,1.0,56,0.00,,,0.00,Wunderground v.1.13,2013-01-05 17:05:00,
2013-01-05 11:11:00,53.4,38.1,30.35,ENE,73,1.0,3.0,56,0.00,,,0.00,Wunderground v.1.13,2013-01-05 17:11:00,
2013-01-05 11:16:00,53.5,36.8,30.35,ENE,73,1.0,2.0,53,0.00,,,0.00,Wunderground v.1.13,2013-01-05 17:16:00,
2013-01-05 11:21:00,53.4,37.2,30.34,ENE,69,1.0,1.0,54,0.00,,,0.00,Wunderground v.1.13,2013-01-05 17:21:00,
2013-01-05 11:26:00,53.4,37.2,30.34,ENE,69,2.0,4.0,54,0.00,,,0.00,Wunderground v.1.13,2013-01-05 17:26:00,
2013-01-05 11:32:00,53.4,37.2,30.33,ENE,68,1.0,2.0,54,0.00,,,0.00,Wunderground v.1.13,2013-01-05 17:32:00,
2013-01-05 11:37:00,53.4,37.2,30.33,ENE,69,1.0,1.0,54,0.00,,,0.00,Wunderground v.1.13,2013-01-05 17:37:00,
2013-01-05 11:42:00,53.2,36.0,30.33,ENE,68,1.0,1.0,52,0.00,,,0.00,Wunderground v.1.13,2013-01-05 17:42:00,
2013-01-05 11:47:00,53.1,36.4,30.32,ENE,68,1.0,2.0,53,0.00,,,0.00,Wunderground v.1.13,2013-01-05 17:47:00,
2013-01-05 11:53:00,52.9,36.2,30.32,ENE,67,1.0,1.0,53,0.00,,,0.00,Wunderground v.1.13,2013-01-05 17:53:00,
2013-01-05 11:58:00,52.8,36.6,30.32,ENE,67,1.0,1.0,54,0.00,,,0.00,Wunderground v.1.13,2013-01-05 17:58:00,
2013-01-05 12:03:00,52.9,37.6,30.31,ENE,67,0.0,0.0,56,0.00,,,0.00,Wunderground v.1.13,2013-01-05 18:03:00,
2013-01-05 12:09:00,53.0,38.2,30.32,ENE,67,0.0,0.0,57,0.00,,,0.00,Wunderground v.1.13,2013-01-05 18:09:00,
2013-01-05 12:14:00,53.1,39.1,30.31,ENE,67,0.0,0.0,59,0.00,,,0.00,Wunderground v.1.13,2013-01-05 18:14:00,
2013-01-05 12:19:00,53.2,38.4,30.31,ENE,67,0.0,4.0,57,0.00,,,0.00,Wunderground v.1.13,2013-01-05 18:19:00,
2013-01-05 12:24:00,53.3,38.4,30.30,ENE,66,1.0,2.0,57,0.00,,,0.00,Wunderground v.1.13,2013-01-05 18:24:00,
2013-01-05 12:29:00,53.2,38.4,30.30,NNE,26,2.0,4.0,57,0.00,,,0.00,Wunderground v.1.13,2013-01-05 18:29:00,
2013-01-05 12:35:00,53.2,38.8,30.30,NNE,28,1.0,3.0,58,0.00,,,0.00,Wunderground v.1.13,2013-01-05 18:35:00,
2013-01-05 12:40:00,53.2,38.8,30.31,NNE,20,1.0,4.0,58,0.00,,,0.00,Wunderground v.1.13,2013-01-05 18:40:00,
2013-01-05 12:45:00,53.3,41.4,30.30,NNE,21,1.0,1.0,64,0.00,,,0.00,Wunderground v.1.13,2013-01-05 18:45:00,
2013-01-05 12:51:00,53.5,39.1,30.31,NNE,20,1.0,1.0,58,0.00,,,0.00,Wunderground v.1.13,2013-01-05 18:51:00,
2013-01-05 12:56:00,53.8,38.5,30.31,NW,326,1.0,1.0,56,0.00,,,0.00,Wunderground v.1.13,2013-01-05 18:56:00,
2013-01-05 13:01:00,54.0,39.5,30.30,NW,326,1.0,1.0,58,0.00,,,0.00,Wunderground v.1.13,2013-01-05 19:01:00,
2013-01-05 13:07:00,54.1,38.3,30.29,NNW,327,0.0,2.0,55,0.00,,,0.00,Wunderground v.1.13,2013-01-05 19:07:00,
2013-01-05 13:12:00,54.1,38.3,30.28,NE,37,1.0,4.0,55,0.00,,,0.00,Wunderground v.1.13,2013-01-05 19:12:00,
2013-01-05 13:18:00,54.0,38.6,30.27,NE,47,1.0,2.0,56,0.00,,,0.00,Wunderground v.1.13,2013-01-05 19:18:00,
2013-01-05 13:23:00,54.0,39.5,30.28,NE,56,2.0,4.0,58,0.00,,,0.00,Wunderground v.1.13,2013-01-05 19:23:00,
2013-01-05 13:28:00,53.9,39.5,30.27,ENE,63,2.0,2.0,58,0.00,,,0.00,Wunderground v.1.13,2013-01-05 19:28:00,
2013-01-05 13:33:00,53.8,38.5,30.27,ENE,65,2.0,3.0,56,0.00,,,0.00,Wunderground v.1.13,2013-01-05 19:33:00,
2013-01-05 13:39:00,53.7,39.3,30.27,ENE,66,1.0,4.0,58,0.00,,,0.00,Wunderground v.1.13,2013-01-05 19:39:00,
2013-01-05 13:46:00,53.8,39.4,30.27,ENE,66,0.0,0.0,58,0.00,,,0.00,Wunderground v.1.13,2013-01-05 19:46:00,
2013-01-05 13:51:00,53.8,38.0,30.27,ENE,66,1.0,1.0,55,0.00,,,0.00,Wunderground v.1.13,2013-01-05 19:51:00,
2013-01-05 13:56:00,53.7,38.4,30.27,ENE,65,1.0,1.0,56,0.00,,,0.00,Wunderground v.1.13,2013-01-05 19:56:00,
2013-01-05 14:01:00,53.6,38.7,30.27,ENE,65,1.0,1.0,57,0.00,,,0.00,Wunderground v.1.13,2013-01-05 20:01:00,
2013-01-05 14:06:00,53.4,38.5,30.27,ENE,64,1.0,3.0,57,0.00,,,0.00,Wunderground v.1.13,2013-01-05 20:06:00,
2013-01-05 14:12:00,53.3,38.9,30.27,ENE,65,1.0,1.0,58,0.00,,,0.00,Wunderground v.1.13,2013-01-05 20:12:00,
2013-01-05 14:17:00,53.2,39.2,30.28,ENE,65,1.0,2.0,59,0.00,,,0.00,Wunderground v.1.13,2013-01-05 20:17:00,
2013-01-05 14:22:00,53.2,38.8,30.28,ENE,65,1.0,2.0,58,0.00,,,0.00,Wunderground v.1.13,2013-01-05 20:22:00,
2013-01-05 14:27:00,53.2,39.7,30.28,ENE,65,0.0,0.0,60,0.00,,,0.00,Wunderground v.1.13,2013-01-05 20:27:00,
2013-01-05 14:33:00,53.3,39.3,30.28,ENE,65,0.0,2.0,59,0.00,,,0.00,Wunderground v.1.13,2013-01-05 20:33:00,
2013-01-05 14:38:00,53.4,39.4,30.28,ENE,64,1.0,1.0,59,0.00,,,0.00,Wunderground v.1.13,2013-01-05 20:38:00,
2013-01-05 14:43:00,53.5,39.5,30.29,ENE,65,0.0,1.0,59,0.00,,,0.00,Wunderground v.1.13,2013-01-05 20:43:00,
2013-01-05 14:48:00,53.7,39.3,30.29,ENE,64,0.0,0.0,58,0.00,,,0.00,Wunderground v.1.13,2013-01-05 20:48:00,
2013-01-05 14:54:00,53.7,39.3,30.30,ENE,65,0.0,0.0,58,0.00,,,0.00,Wunderground v.1.13,2013-01-05 20:54:00,
2013-01-05 14:59:00,53.8,40.7,30.30,ENE,65,0.0,0.0,61,0.00,,,0.00,Wunderground v.1.13,2013-01-05 20:59:00,
2013-01-05 15:04:00,53.8,41.1,30.29,ENE,64,0.0,0.0,62,0.00,,,0.00,Wunderground v.1.13,2013-01-05 21:04:00,
2013-01-05 15:11:00,53.5,40.4,30.29,ENE,64,0.0,0.0,61,0.00,,,0.00,Wunderground v.1.13,2013-01-05 21:11:00,
2013-01-05 15:16:00,53.3,41.0,30.31,ENE,65,0.0,2.0,63,0.00,,,0.00,Wunderground v.1.13,2013-01-05 21:16:00,
2013-01-05 15:21:00,53.1,41.6,30.31,ENE,65,0.0,0.0,65,0.00,,,0.00,Wunderground v.1.13,2013-01-05 21:21:00,
2013-01-05 15:26:00,52.9,41.0,30.32,ENE,64,0.0,0.0,64,0.00,,,0.00,Wunderground v.1.13,2013-01-05 21:26:00,
2013-01-05 15:32:00,52.9,42.2,30.32,ENE,64,0.0,0.0,67,0.00,,,0.00,Wunderground v.1.13,2013-01-05 21:32:00,
2013-01-05 15:38:00,52.8,41.4,30.32,ENE,64,0.0,0.0,65,0.00,,,0.00,Wunderground v.1.13,2013-01-05 21:38:00,
2013-01-05 15:43:00,52.8,41.0,30.32,ENE,64,0.0,0.0,64,0.00,,,0.00,Wunderground v.1.13,2013-01-05 21:43:00,
2013-01-05 15:49:00,52.8,41.0,30.31,ENE,64,0.0,0.0,64,0.00,,,0.00,Wunderground v.1.13,2013-01-05 21:49:00,
2013-01-05 15:54:00,52.8,42.5,30.31,ENE,64,0.0,0.0,68,0.00,,,0.00,Wunderground v.1.13,2013-01-05 21:54:00,
2013-01-05 15:59:00,52.6,43.1,30.30,ENE,64,0.0,1.0,70,0.00,,,0.00,Wunderground v.1.13,2013-01-05 21:59:00,
2013-01-05 16:04:00,52.4,42.1,30.30,ENE,68,0.0,1.0,68,0.00,,,0.00,Wunderground v.1.13,2013-01-05 22:04:00,
2013-01-05 16:09:00,52.2,42.7,30.30,ENE,64,0.0,0.0,70,0.00,,,0.00,Wunderground v.1.13,2013-01-05 22:09:00,
2013-01-05 16:15:00,52.1,43.3,30.30,ENE,64,0.0,0.0,72,0.00,,,0.00,Wunderground v.1.13,2013-01-05 22:15:00,
2013-01-05 16:20:00,52.0,43.3,30.31,ENE,64,0.0,0.0,72,0.00,,,0.00,Wunderground v.1.13,2013-01-05 22:20:00,
2013-01-05 16:25:00,51.8,43.8,30.31,ENE,64,0.0,0.0,74,0.00,,,0.00,Wunderground v.1.13,2013-01-05 22:25:00,
2013-01-05 16:31:00,51.6,43.9,30.31,ENE,64,0.0,0.0,75,0.00,,,0.00,Wunderground v.1.13,2013-01-05 22:31:00,
2013-01-05 16:36:00,51.4,44.8,30.31,ENE,64,0.0,0.0,78,0.00,,,0.00,Wunderground v.1.13,2013-01-05 22:36:00,
2013-01-05 16:41:00,51.3,45.0,30.31,ENE,64,0.0,0.0,79,0.00,,,0.00,Wunderground v.1.13,2013-01-05 22:41:00,
2013-01-05 16:46:00,51.1,44.8,30.32,ENE,64,0.0,0.0,79,0.00,,,0.00,Wunderground v.1.13,2013-01-05 22:46:00,
2013-01-05 16:52:00,50.9,45.3,30.32,ENE,64,0.0,0.0,81,0.00,,,0.00,Wunderground v.1.13,2013-01-05 22:52:00,
2013-01-05 16:57:00,50.7,45.1,30.31,ENE,64,0.0,0.0,81,0.00,,,0.00,Wunderground v.1.13,2013-01-05 22:57:00,
2013-01-05 17:02:00,50.4,45.4,30.31,ENE,64,0.0,0.0,83,0.00,,,0.00,Wunderground v.1.13,2013-01-05 23:02:00,
2013-01-05 17:07:00,50.2,44.6,30.32,ENE,64,0.0,0.0,81,0.00,,,0.00,Wunderground v.1.13,2013-01-05 23:07:00,
2013-01-05 17:12:00,50.1,44.8,30.32,ENE,64,0.0,0.0,82,0.00,,,0.00,Wunderground v.1.13,2013-01-05 23:12:00,
2013-01-05 17:18:00,50.0,45.4,30.32,ENE,64,0.0,0.0,84,0.00,,,0.00,Wunderground v.1.13,2013-01-05 23:18:00,
2013-01-05 17:24:00,49.8,44.8,30.32,ENE,64,0.0,0.0,83,0.00,,,0.00,Wunderground v.1.13,2013-01-05 23:24:00,
2013-01-05 17:29:00,49.7,45.4,30.32,N/A,-737280,0.0,0.0,85,0.00,,,0.00,Wunderground v.1.13,2013-01-05 23:29:00,
2013-01-05 17:34:00,49.6,45.3,30.32,ENE,64,0.0,0.0,85,0.00,,,0.00,Wunderground v.1.13,2013-01-05 23:34:00,
2013-01-05 17:40:00,49.5,45.2,30.32,ENE,64,0.0,0.0,85,0.00,,,0.00,Wunderground v.1.13,2013-01-05 23:40:00,
2013-01-05 17:45:00,49.4,45.4,30.31,ENE,64,0.0,0.0,86,0.00,,,0.00,Wunderground v.1.13,2013-01-05 23:45:00,
2013-01-05 17:50:00,49.2,44.9,30.31,ENE,64,0.0,0.0,85,0.00,,,0.00,Wunderground v.1.13,2013-01-05 23:50:00,
2013-01-05 17:55:00,49.1,44.8,30.31,ENE,64,0.0,0.0,85,0.00,,,0.00,Wunderground v.1.13,2013-01-05 23:55:00,
2013-01-05 18:01:00,49.1,44.2,30.31,ENE,64,0.0,0.0,83,0.00,,,0.00,Wunderground v.1.13,2013-01-06 00:01:00,
2013-01-05 18:06:00,49.2,43.0,30.32,ENE,64,0.0,0.0,79,0.00,,,0.00,Wunderground v.1.13,2013-01-06 00:06:00,
2013-01-05 18:11:00,49.6,45.0,30.33,ENE,64,0.0,0.0,84,0.00,,,0.00,Wunderground v.1.13,2013-01-06 00:11:00,
2013-01-05 18:16:00,49.5,44.2,30.33,ENE,64,0.0,1.0,82,0.00,,,0.00,Wunderground v.1.13,2013-01-06 00:16:00,
2013-01-05 18:22:00,49.6,44.6,30.34,ENE,64,0.0,0.0,83,0.00,,,0.00,Wunderground v.1.13,2013-01-06 00:22:00,
2013-01-05 18:27:00,49.6,44.3,30.35,ENE,64,0.0,0.0,82,0.00,,,0.00,Wunderground v.1.13,2013-01-06 00:27:00,
2013-01-05 18:32:00,49.6,44.0,30.34,ENE,64,0.0,0.0,81,0.00,,,0.00,Wunderground v.1.13,2013-01-06 00:32:00,
2013-01-05 18:37:00,49.5,44.2,30.35,ENE,64,0.0,0.0,82,0.00,,,0.00,Wunderground v.1.13,2013-01-06 00:37:00,
2013-01-05 18:44:00,49.5,44.9,30.34,ENE,64,0.0,0.0,84,0.00,,,0.00,Wunderground v.1.13,2013-01-06 00:44:00,
2013-01-05 18:49:00,49.5,45.5,30.33,ENE,64,0.0,1.0,86,0.00,,,0.00,Wunderground v.1.13,2013-01-06 00:49:00,
2013-01-05 18:55:00,49.4,45.1,30.32,ENE,64,0.0,0.0,85,0.00,,,0.00,Wunderground v.1.13,2013-01-06 00:55:00,
2013-01-05 19:00:00,49.3,44.4,30.31,ENE,64,0.0,2.0,83,0.00,,,0.00,Wunderground v.1.13,2013-01-06 01:00:00,
2013-01-05 19:05:00,49.4,43.8,30.31,ENE,64,1.0,1.0,81,0.00,,,0.00,Wunderground v.1.13,2013-01-06 01:05:00,
2013-01-05 19:10:00,49.5,42.6,30.31,ENE,64,1.0,1.0,77,0.00,,,0.00,Wunderground v.1.13,2013-01-06 01:10:00,
2013-01-05 19:15:00,49.7,43.1,30.32,ENE,65,0.0,1.0,78,0.00,,,0.00,Wunderground v.1.13,2013-01-06 01:15:00,
2013-01-05 19:21:00,49.9,43.0,30.32,ENE,65,0.0,0.0,77,0.00,,,0.00,Wunderground v.1.13,2013-01-06 01:21:00,
2013-01-05 19:26:00,50.1,42.8,30.32,ENE,64,0.0,0.0,76,0.00,,,0.00,Wunderground v.1.13,2013-01-06 01:26:00,
2013-01-05 19:31:00,50.1,42.1,30.32,ENE,64,0.0,0.0,74,0.00,,,0.00,Wunderground v.1.13,2013-01-06 01:31:00,
2013-01-05 19:36:00,50.3,43.0,30.31,ENE,64,0.0,1.0,76,0.00,,,0.00,Wunderground v.1.13,2013-01-06 01:36:00,
2013-01-05 19:42:00,50.4,42.4,30.30,ENE,65,0.0,0.0,74,0.00,,,0.00,Wunderground v.1.13,2013-01-06 01:42:00,
2013-01-05 19:47:00,50.4,42.8,30.29,ENE,64,0.0,2.0,75,0.00,,,0.00,Wunderground v.1.13,2013-01-06 01:47:00,
2013-01-05 19:52:00,50.4,42.4,30.29,ENE,65,0.0,1.0,74,0.00,,,0.00,Wunderground v.1.13,2013-01-06 01:52:00,
2013-01-05 19:57:00,50.4,42.1,30.29,ENE,65,0.0,2.0,73,0.00,,,0.00,Wunderground v.1.13,2013-01-06 01:57:00,
2013-01-05 20:03:00,50.5,42.2,30.30,ENE,64,1.0,4.0,73,0.00,,,0.00,Wunderground v.1.13,2013-01-06 02:03:00,
2013-01-05 20:08:00,50.6,42.3,30.31,ENE,64,1.0,1.0,73,0.00,,,0.00,Wunderground v.1.13,2013-01-06 02:08:00,
2013-01-05 20:13:00,50.7,42.4,30.30,ENE,64,1.0,1.0,73,0.00,,,0.00,Wunderground v.1.13,2013-01-06 02:13:00,
2013-01-05 20:19:00,50.8,41.7,30.32,ENE,61,1.0,4.0,71,0.00,,,0.00,Wunderground v.1.13,2013-01-06 02:19:00,
2013-01-05 20:24:00,50.9,41.8,30.30,NE,45,1.0,2.0,71,0.00,,,0.00,Wunderground v.1.13,2013-01-06 02:24:00,
2013-01-05 20:30:00,50.9,41.8,30.29,NE,53,2.0,4.0,71,0.00,,,0.00,Wunderground v.1.13,2013-01-06 02:30:00,
2013-01-05 20:35:00,50.9,41.8,30.30,NE,51,1.0,4.0,71,0.00,,,0.00,Wunderground v.1.13,2013-01-06 02:35:00,
2013-01-05 20:40:00,50.9,41.8,30.29,NE,49,1.0,1.0,71,0.00,,,0.00,Wunderground v.1.13,2013-01-06 02:40:00,
2013-01-05 20:46:00,50.9,41.5,30.29,NE,42,1.0,5.0,70,0.00,,,0.00,Wunderground v.1.13,2013-01-06 02:46:00,
2013-01-05 20:51:00,50.9,41.8,30.29,North,355,1.0,1.0,71,0.00,,,0.00,Wunderground v.1.13,2013-01-06 02:51:00,
2013-01-05 20:57:00,50.8,41.7,30.28,North,355,0.0,2.0,71,0.00,,,0.00,Wunderground v.1.13,2013-01-06 02:57:00,
2013-01-05 21:02:00,50.8,41.4,30.28,ENE,59,0.0,1.0,70,0.00,,,0.00,Wunderground v.1.13,2013-01-06 03:02:00,
2013-01-05 21:07:00,50.8,41.0,30.29,ENE,57,0.0,1.0,69,0.00,,,0.00,Wunderground v.1.13,2013-01-06 03:07:00,
2013-01-05 21:12:00,50.8,41.0,30.28,ENE,57,0.0,0.0,69,0.00,,,0.00,Wunderground v.1.13,2013-01-06 03:12:00,
2013-01-05 21:17:00,50.8,41.4,30.28,ENE,58,0.0,1.0,70,0.00,,,0.00,Wunderground v.1.13,2013-01-06 03:17:00,
2013-01-05 21:23:00,50.7,41.3,30.28,ENE,57,0.0,0.0,70,0.00,,,0.00,Wunderground v.1.13,2013-01-06 03:23:00,
2013-01-05 21:28:00,50.5,41.1,30.27,ENE,57,1.0,2.0,70,0.00,,,0.00,Wunderground v.1.13,2013-01-06 03:28:00,
2013-01-05 21:33:00,50.4,41.0,30.28,ENE,57,0.0,2.0,70,0.00,,,0.00,Wunderground v.1.13,2013-01-06 03:33:00,
2013-01-05 21:38:00,50.4,41.3,30.28,N/A,-737280,0.0,0.0,71,0.00,,,0.00,Wunderground v.1.13,2013-01-06 03:38:00,
2013-01-05 21:44:00,50.2,42.2,30.27,ENE,57,0.0,0.0,74,0.00,,,0.00,Wunderground v.1.13,2013-01-06 03:44:00,
2013-01-05 21:49:00,49.8,41.8,30.28,ENE,57,0.0,0.0,74,0.00,,,0.00,Wunderground v.1.13,2013-01-06 03:49:00,
2013-01-05 21:54:00,49.6,41.7,30.28,ENE,57,0.0,0.0,74,0.00,,,0.00,Wunderground v.1.13,2013-01-06 03:54:00,
2013-01-05 22:00:00,49.3,43.4,30.28,ENE,57,0.0,0.0,80,0.00,,,0.00,Wunderground v.1.13,2013-01-06 04:00:00,
2013-01-05 22:05:00,49.0,42.8,30.27,ENE,57,0.0,0.0,79,0.00,,,0.00,Wunderground v.1.13,2013-01-06 04:05:00,
2013-01-05 22:10:00,48.7,43.5,30.27,NE,56,0.0,0.0,82,0.00,,,0.00,Wunderground v.1.13,2013-01-06 04:10:00,
2013-01-05 22:16:00,48.4,43.5,30.27,ENE,57,0.0,0.0,83,0.00,,,0.00,Wunderground v.1.13,2013-01-06 04:16:00,
2013-01-05 22:21:00,48.1,43.2,30.26,ENE,57,0.0,0.0,83,0.00,,,0.00,Wunderground v.1.13,2013-01-06 04:21:00,
2013-01-05 22:26:00,48.0,42.4,30.26,ENE,57,0.0,0.0,81,0.00,,,0.00,Wunderground v.1.13,2013-01-06 04:26:00,
2013-01-05 22:32:00,48.0,41.1,30.26,ENE,57,0.0,0.0,77,0.00,,,0.00,Wunderground v.1.13,2013-01-06 04:32:00,
2013-01-05 22:37:00,48.1,41.9,30.25,ENE,57,0.0,1.0,79,0.00,,,0.00,Wunderground v.1.13,2013-01-06 04:37:00,
2013-01-05 22:42:00,48.2,41.3,30.24,ENE,57,0.0,2.0,77,0.00,,,0.00,Wunderground v.1.13,2013-01-06 04:42:00,
2013-01-05 22:47:00,48.4,41.5,30.26,ENE,57,0.0,1.0,77,0.00,,,0.00,Wunderground v.1.13,2013-01-06 04:47:00,
2013-01-05 22:53:00,48.5,42.3,30.26,ENE,57,0.0,0.0,79,0.00,,,0.00,Wunderground v.1.13,2013-01-06 04:53:00,
2013-01-05 22:58:00,48.6,41.4,30.26,ENE,57,0.0,0.0,76,0.00,,,0.00,Wunderground v.1.13,2013-01-06 04:58:00,
2013-01-05 23:00:00,48.6,40.7,30.26,ENE,57,0.0,0.0,74,0.00,,,0.00,Wunderground v.1.13,2013-01-06 05:00:00,
2013-01-05 23:01:00,48.7,40.8,30.26,ENE,57,0.0,0.0,74,0.00,,,0.00,Wunderground v.1.13,2013-01-06 05:01:00,
2013-01-05 23:05:00,48.8,41.2,30.25,ENE,57,0.0,0.0,75,0.00,,,0.00,Wunderground v.1.13,2013-01-06 05:05:00,
2013-01-05 23:08:00,48.8,41.6,30.25,ENE,57,0.0,0.0,76,0.00,,,0.00,Wunderground v.1.13,2013-01-06 05:08:00,
2013-01-05 23:13:00,48.9,42.3,30.25,ENE,57,0.0,0.0,78,0.00,,,0.00,Wunderground v.1.13,2013-01-06 05:13:00,
2013-01-05 23:18:00,48.8,42.6,30.25,ENE,57,0.0,0.0,79,0.00,,,0.00,Wunderground v.1.13,2013-01-06 05:18:00,
2013-01-05 23:24:00,48.7,42.5,30.24,ENE,57,0.0,0.0,79,0.00,,,0.00,Wunderground v.1.13,2013-01-06 05:24:00,
2013-01-05 23:29:00,48.6,41.4,30.24,ENE,57,0.0,1.0,76,0.00,,,0.00,Wunderground v.1.13,2013-01-06 05:29:00,
2013-01-05 23:34:00,48.7,41.1,30.24,NE,56,0.0,0.0,75,0.00,,,0.00,Wunderground v.1.13,2013-01-06 05:34:00,
2013-01-05 23:39:00,48.7,42.1,30.25,N/A,-737280,0.0,0.0,78,0.00,,,0.00,Wunderground v.1.13,2013-01-06 05:39:00,
2013-01-05 23:45:00,48.7,41.8,30.25,NE,56,0.0,0.0,77,0.00,,,0.00,Wunderground v.1.13,2013-01-06 05:45:00,
2013-01-05 23:50:00,48.6,42.0,30.25,ENE,57,0.0,0.0,78,0.00,,,0.00,Wunderground v.1.13,2013-01-06 05:50:00,
2013-01-05 23:55:00,48.4,42.5,30.24,NE,56,0.0,0.0,80,0.00,,,0.00,Wunderground v.1.13,2013-01-06 05:55:00,